Weather Service Report


235 
ASCA42 TJSJ 221811
RWRPR 
PUERTO RICO/U.S. VIRGIN ISLANDS HOURLY WEATHER ROUNDUP
NATIONAL WEATHER SERVICE SAN JUAN PR
200 PM AST FRI AUG 22 2014

PRZ001-004-221900-
PUERTO RICO
  
CITY           SKY/WX    TMP DP  RH WIND       PRES   REMARKS
SAN JUAN LMM   LGT RAIN  79  75  89 E6        29.86S                  
PONCE          LGT RAIN  81  77  89 E7        29.82S                  
MAYAGUEZ       PTSUNNY   84  75  74 S6        29.85F HX  92           
AGUADILLA      PTSUNNY   82  75  78 SE7       29.84F                  
CEIBA          RAIN      75  75 100 SE16      29.90F                  
$$

PRZ006-007-221900-
U.S. VIRGIN ISLANDS
  
CITY           SKY/WX    TMP DP  RH WIND       PRES   REMARKS
CHARLOTTE AMA  LGT RAIN  79  75  89 S13       29.89F                  
CHRISTIANSTED  CLOUDY    81  75  83 SE14G22   29.89F                  
$$

HOURLY WEATHER ROUNDUP FOR THE NEWS MEDIA
  
CITY           SKY/WX    TMP DP  RH WIND       PRES   REMARKS
MIAMI          PTSUNNY   89  74  60 E7        30.05F HX  98           
ORLANDO        MOSUNNY   95  72  47 MISG      30.05F HX 103           
NEW YORK       PTSUNNY   77  62  59 SE9       30.03S                  
NEWARK         CLOUDY    75  61  61 E3        30.02F                  
CHICAGO        CLOUDY    81  73  76 W5        29.94F                  
HARTFORD       CLOUDY    72  61  68 NE8       30.07R                  
BOSTON         CLOUDY    70  61  73 NE12      30.10S                  
DALLAS         MOSUNNY   93  65  39 SW12G18   30.03F HX  95           
PHILADELPHIA   PTSUNNY   79  67  66 E10       30.00F                  

Return to Home page


Western Regional Climate Center, wrcc@dri.edu